sat.trackr.live / text

‹ back to catalog

STARLINK-31369

NORAD 58975 · 2024-031L

PAYLOAD ACTIVE UNKNOWN

§ Identity

Operator
Country
US
Launch date
2024-02-15
Launch site
AFWTR
Launch vehicle
Mass (kg)
RCS (m²)

Purposes: comms

External: N2YO · Heavens-Above · Gunter

§ Orbital elements

Epoch: 2026-05-24T15:45:40.323744Z

Period
94.11 min
Inclination
53.1622°
Eccentricity
0.0000925
Mean motion
15.30192978 rev/d
Perigee alt
474.6 km
Apogee alt
475.9 km
Semi-major
6,853.4 km
B*
1.8925e-5
RAAN
303.8626°
Arg perigee
67.4851°
Mean anomaly
292.6247°
Rev number
12,814

§ Raw data

STARLINK-313691 58975U 24031L   26144.65671671  .00000201  00000+0  18925-4 0  99912 58975  53.1622 303.8626 0000925  67.4851 292.6247 15.30192978128143

JSON: /api/v1/satellites/58975 · /tle

For live sub-satellite position, see the globe view (requires WebGL).

§ Visibility from observer

Set your observer location to see the next 7 days of passes ≥ 10°. The values pass through the URL so the page stays shareable.

No JS? Fill the form by hand. The geolocation button needs JavaScript.